User: anonymous   Login
Location: Fort Wayne
(41.1310°N, 85.1290°W)
Time: 13:08:30
(UTC-05:00)
Language:

Helios 1B - Orbit

View from above orbital plane
View from above orbital plane
View from above satellite
View from above satellite

Ground track
Ground track

The orbit data is extracted from the following two-line orbital elements,

1 25977U 99064A   16342.84645461  .00000240  00000-0  37102-4 0  9995
2 25977  98.1420  85.0100 0001825 137.3049 222.8305 14.82182904915661
Epoch (UTC): 07 December 2016 20:18:53
Eccentricity: 0.0001825
inclination: 98.1420°
perigee height: 621 km
apogee height: 624 km
right ascension of ascending node: 85.0100°
argument of perigee: 137.3049°
revolutions per day: 14.82182904
mean anomaly at epoch: 222.8305°
orbit number at epoch: 91566

The dashed part of the orbit path shows where the satellite is in the earth's shadow,  

DLR